This is the latest recevied weather packets stored in our database for station/object KD4MBW. If no packets are shown the sender has not sent any weather packets the latest 1 day(s).
| Time | Temp. | Humidity | Pressure | Rain* | Wind** | Luminosity | Snow |
|---|---|---|---|---|---|---|---|
| 1778001948 | 26.11° C | 61% | 1016.3 hPa | 0 mm | 3.58 m/s, 260° | 724 W/m² | - |
| 1778001644 | 26.11° C | 62% | 1016.4 hPa | 0 mm | 4.02 m/s, 209° | 295 W/m² | - |
| 1778001339 | 25.56° C | 62% | 1016.6 hPa | 0 mm | 4.02 m/s, 188° | 817 W/m² | - |
| 1778001037 | 25.56° C | 61% | 1016.3 hPa | 0 mm | 4.02 m/s, 207° | 396 W/m² | - |
| 1778000733 | 26.11° C | 61% | 1016.5 hPa | 0 mm | 1.79 m/s, 319° | 586 W/m² | - |
| 1778000430 | 26.11° C | 62% | 1016.4 hPa | 0 mm | 1.34 m/s, 242° | 630 W/m² | - |
| 1778000125 | 26.11° C | 60% | 1016.5 hPa | 0 mm | 4.02 m/s, 225° | 660 W/m² | - |
| 1777999821 | 25.56° C | 61% | 1016.5 hPa | 0 mm | 2.68 m/s, 264° | 747 W/m² | - |
| 1777999517 | 26.11° C | 59% | 1016.5 hPa | 0 mm | 3.58 m/s, 233° | 749 W/m² | - |
| 1777999215 | 26.67° C | 58% | 1016.4 hPa | 0 mm | 2.24 m/s, 85° | 721 W/m² | - |
| 1777998913 | 25.56° C | 60% | 1016.3 hPa | 0 mm | 1.34 m/s, 265° | 743 W/m² | - |
| 1777998609 | 25.56° C | 60% | 1016.4 hPa | 0 mm | 1.79 m/s, 176° | 729 W/m² | - |
| 1777998303 | 26.11° C | 59% | 1016.4 hPa | 0 mm | 1.34 m/s, 203° | 728 W/m² | - |
| 1777998000 | 25.56° C | 60% | 1016.5 hPa | 0 mm | 2.24 m/s, 229° | 775 W/m² | - |
| 1777997696 | 25.56° C | 61% | 1016.3 hPa | 0 mm | 1.34 m/s, 162° | 769 W/m² | - |
| 1777997394 | 25.56° C | 60% | 1016.5 hPa | 0 mm | 0.89 m/s, 219° | 786 W/m² | - |
| 1777997092 | 25.56° C | 60% | 1016.5 hPa | 0 mm | 0.89 m/s, 80° | 755 W/m² | - |
| 1777996788 | 25° C | 62% | 1016.3 hPa | 0 mm | 2.24 m/s, 208° | 766 W/m² | - |
| 1777996485 | 25° C | 63% | 1016.5 hPa | 0 mm | 0.89 m/s, 274° | 751 W/m² | - |
| 1777996182 | 25° C | 62% | 1016.6 hPa | 0 mm | 1.79 m/s, 220° | 470 W/m² | - |
| 1777995878 | 25° C | 61% | 1016.4 hPa | 0 mm | 1.79 m/s, 184° | 745 W/m² | - |
| 1777995574 | 25° C | 62% | 1016.6 hPa | 0 mm | 1.34 m/s, 181° | 727 W/m² | - |
| 1777995272 | 25° C | 61% | 1016.6 hPa | 0 mm | 2.24 m/s, 185° | 645 W/m² | - |
| 1777994968 | 25° C | 62% | 1016.8 hPa | 0 mm | 0.45 m/s, 266° | 713 W/m² | - |
| 1777994660 | 25° C | 61% | 1016.5 hPa | 0 mm | 1.79 m/s, 146° | 707 W/m² | - |
* Rain latest hour (hover to see other rain measurements)
** Current wind speed in m/s (hover to see current wind gust speed)